Preview of NWS' New Version of Forecast
This preview is not operational and should not be used for support decisions.

Regional Weather Roundup (RWR)

Issued by National Weather Service (NWS)

                            
000
ASUS44 KMEG 210300
RWRTN 
TENNESSEE HOURLY STATE WEATHER ROUNDUP
NATIONAL WEATHER SERVICE MEMPHIS TN
1000 PM CDT FRI SEP 20 2019

TNZ002-004-019-021-049-052-054-088>092-210400-
WEST TENNESSEE
  
CITY           SKY/WX    TMP DP  RH WIND       PRES   REMARKS
MEMPHIS INTL   MOCLDY    80  65  59 S10       30.15R                  
NWS MEMPHIS      N/A     78 N/A N/A MISG        N/A                   
JACKSON        FAIR      70  66  87 CALM      30.18R                  
DYERSBURG      FAIR      76  66  71 S3        30.17R                  
SOMERVILLE     CLEAR     77  64  65 S5        30.16S                  
COVINGTON      CLEAR     75  64  69 S3        30.15S                  
UNION CITY       N/A     73  66  78 SE6       30.14S                  
BOLIVAR        CLEAR     72  66  83 CALM      30.17S                  
PARIS          CLEAR     73  64  73 S3        30.16F                  
HUNTINGDON     CLEAR     75  64  69 CALM      30.17S                  
LEXINGTON      CLEAR     70  66  88 CALM      30.18S                  
SELMER         CLEAR     70  64  83 S5        30.18S                  
SAVANNAH       PTCLDY    68  66  94 CALM      30.18S                  
$$

TNZ008-025-027-028-033-062-065-066-210400-
NORTH MIDDLE TENNESSEE
  
CITY           SKY/WX    TMP DP  RH WIND       PRES   REMARKS
NASHVILLE      FAIR      75  60  59 S5        30.22R                  
DICKSON        CLEAR     77  59  53 S6        30.20S                  
PORTLAND       CLEAR     70  64  83 S5        30.21S                  
CLARKSVILLE    FAIR      73  64  73 CALM      30.18S                  
LEBANON        PTCLDY    72  63  73 CALM      30.20R                  
SMYRNA         FAIR      71  63  75 CALM      30.23R                  
MURFREESBORO   PTCLDY    75  61  60 CALM      30.20S                  
LIVINGSTON       N/A     70  61  73 CALM      30.25S                  
CROSSVILLE     FAIR      65  57  75 CALM      30.30R                  
ROCKWOOD       CLEAR     66  59  77 CALM      30.28R                  
$$

TNZ061-075-076-078-094-096-097-210400-
SOUTH MIDDLE TENNESSEE
  
CITY           SKY/WX    TMP DP  RH WIND       PRES   REMARKS
LAWRENCEBURG   CLEAR     68  61  77 CALM      30.22S                  
LEWISBURG      CLEAR     66  61  82 CALM      30.22R                  
FAYETTEVILLE   CLEAR     72  57  60 SE5       30.24R                  
TULLAHOMA      CLEAR     73  57  56 SE3       30.24R                  
WINCHESTER     CLEAR     68  57  68 SE3       30.25R                  
MCMINNVILLE    CLEAR     68  57  68 CALM      30.24S                  
COLUMBIA       PTCLDY    70  66  88 CALM      30.20R                  
SHELBYVILLE    CLEAR     68  61  77 CALM      30.23R                  
$$

TNZ017-018-042-046-047-210400-
NORTHEAST TENNESSEE
  
CITY           SKY/WX    TMP DP  RH WIND       PRES   REMARKS
TRI CITIES     FAIR      64  61  90 CALM      30.29S                  
ELIZABETHTON   FAIR      63  59  88 CALM      30.30S                  
GREENEVILLE    CLEAR     70  59  68 S5        30.28S                  
$$

TNZ012-013-036-069-073-074-210400-
CENTRAL EAST TENNESSEE
  
CITY           SKY/WX    TMP DP  RH WIND       PRES   REMARKS
KNOXVILLE      FAIR      73  60  63 SW6       30.24S                  
OAK RIDGE      FAIR      70  62  76 CALM      30.26S                  
DOWNTOWN KNOXV CLEAR     68  66  94 CALM      30.25R                  
GATLINBURG     CLOUDY    72  63  73 CALM      30.25S                  
MORRISTOWN     PTCLDY    70  63  78 CALM      30.26R                  
JACKSBORO      CLEAR     66  63  88 CALM      30.29R                  
$$

TNZ083-085-099-210400-
SOUTHEAST TENNESSEE
  
CITY           SKY/WX    TMP DP  RH WIND       PRES   REMARKS
CHATTANOOGA    FAIR      76  58  53 S3        30.26R                  
$$

SKY/WX REPORTED AS FAIR MEANS FEW OR NO CLOUDS BELOW
12 THOUSAND FEET.